Previsão horária em Abengourou

Hoje, 11 Abril, Domingo

Tempo Temperatura Precipitação Vento Pressão Humidade
00:00 +24°C° 1.7 mm 2 m/s 738 mmHg 94%
01:00 +24°C° 0 mm 1 m/s 738 mmHg 95%
02:00 +24°C° 0 mm 1 m/s 738 mmHg 96%
03:00 +24°C° 0 mm 1 m/s 738 mmHg 97%
04:00 +24°C° 0 mm 1 m/s 738 mmHg 97%
05:00 +24°C° 0 mm 1 m/s 738 mmHg 98%
06:00 +24°C° 0 mm 1 m/s 738 mmHg 98%
07:00 +26°C° 0 mm 1 m/s 739 mmHg 91%
08:00 +27°C° 0 mm 1 m/s 740 mmHg 83%
09:00 +29°C° 0 mm 2 m/s 741 mmHg 76%
10:00 +31°C° 0 mm 2 m/s 740 mmHg 66%
11:00 +34°C° 0 mm 2 m/s 740 mmHg 57%
12:00 +36°C° 0 mm 2 m/s 739 mmHg 48%
13:00 +36°C° 0 mm 1 m/s 739 mmHg 44%
14:00 +37°C° 0 mm 1 m/s 738 mmHg 41%
15:00 +39°C° 0 mm 1 m/s 737 mmHg 38%
16:00 +35°C° 0.3 mm 1 m/s 738 mmHg 51%
17:00 +32°C° 0.3 mm 1 m/s 738 mmHg 63%
18:00 +29°C° 0.3 mm 1 m/s 738 mmHg 76%
19:00 +28°C° 0.5 mm 1 m/s 739 mmHg 81%
20:00 +27°C° 0.5 mm 1 m/s 739 mmHg 86%
21:00 +26°C° 0.5 mm 1 m/s 740 mmHg 92%
22:00 +26°C° 0 mm 1 m/s 740 mmHg 93%
23:00 +26°C° 0 mm 1 m/s 740 mmHg 94%

Amanhã, 12 Abril, Segunda-feira

Tempo Temperatura Precipitação Vento Pressão Humidade
00:00 +26°C° 0 mm 2 m/s 740 mmHg 95%
01:00 +26°C° 0 mm 1 m/s 740 mmHg 95%
02:00 +25°C° 0 mm 1 m/s 740 mmHg 95%
03:00 +25°C° 0 mm 1 m/s 739 mmHg 95%
04:00 +25°C° 0 mm 1 m/s 740 mmHg 96%
05:00 +25°C° 0 mm 1 m/s 740 mmHg 97%
06:00 +25°C° 0 mm 1 m/s 740 mmHg 98%
07:00 +27°C° 0 mm 1 m/s 741 mmHg 89%
08:00 +28°C° 0 mm 1 m/s 741 mmHg 80%
09:00 +30°C° 0 mm 2 m/s 741 mmHg 71%
10:00 +32°C° 0 mm 2 m/s 741 mmHg 63%
11:00 +35°C° 0 mm 2 m/s 740 mmHg 55%
12:00 +37°C° 0 mm 2 m/s 740 mmHg 47%
13:00 +37°C° 0 mm 1 m/s 739 mmHg 44%
14:00 +37°C° 0 mm 1 m/s 739 mmHg 41%
15:00 +39°C° 0 mm 1 m/s 738 mmHg 38%
16:00 +37°C° 0.1 mm 2 m/s 738 mmHg 47%
17:00 +34°C° 0.1 mm 2 m/s 738 mmHg 56%
18:00 +31°C° 0.1 mm 2 m/s 738 mmHg 65%
19:00 +29°C° 1.3 mm 2 m/s 739 mmHg 74%
20:00 +28°C° 1.3 mm 2 m/s 740 mmHg 83%
21:00 +26°C° 1.3 mm 1 m/s 740 mmHg 92%
22:00 +26°C° 0 mm 1 m/s 741 mmHg 93%
23:00 +26°C° 0 mm 1 m/s 741 mmHg 94%

Depois de amanhã, 13 Abril, Terça-feira

Tempo Temperatura Precipitação Vento Pressão Humidade
00:00 +26°C° 0 mm 1 m/s 741 mmHg 95%
01:00 +26°C° 0 mm 1 m/s 741 mmHg 95%
02:00 +26°C° 0 mm 1 m/s 740 mmHg 95%
03:00 +26°C° 0 mm 1 m/s 740 mmHg 95%
04:00 +26°C° 0 mm 1 m/s 740 mmHg 96%
05:00 +25°C° 0 mm 1 m/s 741 mmHg 97%
06:00 +25°C° 0 mm 1 m/s 741 mmHg 98%
07:00 +27°C° 0 mm 1 m/s 741 mmHg 89%
08:00 +29°C° 0 mm 2 m/s 742 mmHg 79%
09:00 +30°C° 0 mm 2 m/s 742 mmHg 70%
10:00 +31°C° 0 mm 2 m/s 742 mmHg 65%
11:00 +32°C° 0 mm 2 m/s 742 mmHg 60%
12:00 +34°C° 0 mm 2 m/s 742 mmHg 56%
13:00 +35°C° 0 mm 2 m/s 741 mmHg 53%
14:00 +35°C° 0 mm 2 m/s 740 mmHg 51%
15:00 +36°C° 0 mm 2 m/s 739 mmHg 48%
16:00 +34°C° 0.2 mm 2 m/s 739 mmHg 57%
17:00 +31°C° 0.2 mm 1 m/s 739 mmHg 66%
18:00 +30°C° 0.2 mm 1 m/s 739 mmHg 75%
19:00 +29°C° 0 mm 1 m/s 739 mmHg 78%
20:00 +28°C° 0 mm 1 m/s 740 mmHg 81%
21:00 +27°C° 0 mm 1 m/s 740 mmHg 84%
22:00 +27°C° 0 mm 1 m/s 741 mmHg 86%
23:00 +26°C° 0 mm 1 m/s 741 mmHg 88%

14 Abril, Quarta-feira

Tempo Temperatura Precipitação Vento Pressão Humidade
00:00 +26°C° 0 mm 1 m/s 741 mmHg 91%
01:00 +25°C° 0 mm 1 m/s 741 mmHg 93%
02:00 +25°C° 0 mm 1 m/s 740 mmHg 95%
03:00 +23°C° 0 mm 0 m/s 740 mmHg 97%
04:00 +23°C° 0 mm 0 m/s 740 mmHg 98%
05:00 +23°C° 0 mm 0 m/s 741 mmHg 98%
06:00 +22°C° 0 mm 0 m/s 741 mmHg 99%
07:00 +26°C° 0 mm 1 m/s 741 mmHg 89%
08:00 +28°C° 0 mm 1 m/s 742 mmHg 79%
09:00 +30°C° 0 mm 2 m/s 742 mmHg 68%
10:00 +32°C° 0 mm 2 m/s 742 mmHg 61%
11:00 +35°C° 0 mm 2 m/s 741 mmHg 54%
12:00 +37°C° 0 mm 2 m/s 740 mmHg 46%
13:00 +36°C° 0 mm 2 m/s 740 mmHg 50%
14:00 +35°C° 0 mm 2 m/s 739 mmHg 53%
15:00 +34°C° 0 mm 2 m/s 739 mmHg 57%
16:00 +32°C° 0.2 mm 2 m/s 739 mmHg 62%
17:00 +31°C° 0.2 mm 2 m/s 739 mmHg 67%
18:00 +30°C° 0.2 mm 3 m/s 739 mmHg 72%
19:00 +28°C° 0.2 mm 2 m/s 740 mmHg 78%
20:00 +27°C° 0.2 mm 2 m/s 740 mmHg 85%
21:00 +25°C° 0.2 mm 1 m/s 741 mmHg 91%
22:00 +25°C° 0.2 mm 1 m/s 741 mmHg 92%
23:00 +22°C° 0.2 mm 0 m/s 741 mmHg 94%

15 Abril, Quinta-feira

Tempo Temperatura Precipitação Vento Pressão Humidade
00:00 +22°C° 0.2 mm 0 m/s 741 mmHg 95%
01:00 +22°C° 0 mm 0 m/s 740 mmHg 96%
02:00 +22°C° 0 mm 0 m/s 740 mmHg 98%
03:00 +24°C° 0 mm 1 m/s 740 mmHg 99%
04:00 +24°C° 0 mm 1 m/s 740 mmHg 99%
05:00 +24°C° 0 mm 1 m/s 740 mmHg 99%
06:00 +24°C° 0 mm 1 m/s 741 mmHg 99%
07:00 +26°C° 0 mm 1 m/s 741 mmHg 90%
08:00 +28°C° 0 mm 1 m/s 742 mmHg 81%
09:00 +30°C° 0 mm 1 m/s 742 mmHg 72%
10:00 +32°C° 0 mm 1 m/s 742 mmHg 62%
11:00 +34°C° 0 mm 1 m/s 741 mmHg 53%
12:00 +37°C° 0 mm 2 m/s 741 mmHg 44%
13:00 +35°C° 0 mm 1 m/s 740 mmHg 46%
14:00 +35°C° 0 mm 1 m/s 739 mmHg 48%
15:00 +34°C° 0 mm 1 m/s 738 mmHg 50%
16:00 +33°C° 0 mm 1 m/s 738 mmHg 55%
17:00 +32°C° 0 mm 1 m/s 738 mmHg 60%
18:00 +31°C° 0 mm 1 m/s 738 mmHg 65%
19:00 +30°C° 0 mm 1 m/s 739 mmHg 70%
20:00 +28°C° 0 mm 1 m/s 739 mmHg 75%
21:00 +27°C° 0 mm 1 m/s 740 mmHg 80%
22:00 +27°C° 0 mm 1 m/s 740 mmHg 83%
23:00 +26°C° 0 mm 1 m/s 740 mmHg 85%

16 Abril, Sexta-feira

Tempo Temperatura Precipitação Vento Pressão Humidade
00:00 +26°C° 0 mm 1 m/s 740 mmHg 88%
01:00 +25°C° 0 mm 1 m/s 739 mmHg 90%
02:00 +25°C° 0 mm 1 m/s 739 mmHg 93%
03:00 +25°C° 0 mm 1 m/s 739 mmHg 95%
04:00 +25°C° 0 mm 1 m/s 739 mmHg 96%
05:00 +24°C° 0 mm 1 m/s 739 mmHg 98%
06:00 +24°C° 0 mm 1 m/s 740 mmHg 99%
07:00 +26°C° 0 mm 1 m/s 740 mmHg 88%
08:00 +28°C° 0 mm 1 m/s 741 mmHg 77%
09:00 +30°C° 0 mm 2 m/s 741 mmHg 67%
10:00 +32°C° 0 mm 2 m/s 741 mmHg 59%
11:00 +35°C° 0 mm 2 m/s 740 mmHg 52%
12:00 +37°C° 0 mm 2 m/s 740 mmHg 45%
13:00 +37°C° 0 mm 2 m/s 739 mmHg 46%
14:00 +36°C° 0 mm 2 m/s 738 mmHg 47%
15:00 +36°C° 0 mm 2 m/s 738 mmHg 49%
16:00 +35°C° 0.1 mm 2 m/s 738 mmHg 55%
17:00 +32°C° 0.1 mm 2 m/s 738 mmHg 61%
18:00 +31°C° 0.1 mm 2 m/s 738 mmHg 67%
19:00 +29°C° 0.7 mm 1 m/s 739 mmHg 74%
20:00 +28°C° 0.7 mm 1 m/s 739 mmHg 81%
21:00 +26°C° 0.7 mm 1 m/s 740 mmHg 87%
22:00 +26°C° 0 mm 1 m/s 740 mmHg 89%
23:00 +26°C° 0 mm 1 m/s 740 mmHg 91%
Mostrar mais

Necessitamos do seu Consentimento

A Meteoprog e os seus Fornecedores de Serviços podem armazenar e aceder a dados pessoais como cookies, identificadores do dispositivo ou outras tecnologias semelhantes existentes no seu dispositivo e processar estes dados para personalizar conteúdos e anúncios, assim como funcionalidades nas redes sociais e análise de tráfego.

  • Armazenar e/ou aceder a informações no seu dispositivo

    Os cookies, identificadores do dispositivo ou outras informações podem ser armazenados ou acedidos no seu dispositivo, para os fins acima indicados.

  • Anúncios e conteúdos personalizados, medição de anúncios e conteúdos, dados sobre o público-alvo e desenvolvimento de produtos

    Os anúncios e os conteúdos podem ser personalizados com base num perfil. Podem ser adicionados dados adicionais para uma maior personalização dos anúncios e dos conteúdos. A eficácia dos anúncios e dos conteúdos pode ser medida. Podem ser obtidas informações sobre o público que visualizou os anúncios e os conteúdos. Estes dados podem ser usados para desenvolver ou melhorar sistemas, softwares ou a experiência do utilizador.

Ao clicar em "Eu concordo”, permitirá o uso de cookies, identificadores do dispositivo e web beacons mencionados ou outras tecnologias semelhantes. As configurações do navegador do seu dispositivo podem ser alteradas.

Para certos fins, podem ser invocados interesses legítimos ao invés de consentimento. Pode ler mais informação sobre este assunto na nossa Política de Privacidade e Cookies.